STARLINK-35930

Last updated on Wed Dec 31 2025 00:02:06 GMT+0000 (Coordinated Universal Time)

1 66599U 25270M 25364.57650386 .00064065 00000+0 15278-2 0 9996 2 66599 43.0001 89.2839 0002068 277.3686 82.6935 15.40705015 7108
UTC large
Height (km)
Speed (km/s)
/
Latitude / Longitude
Inclination (degrees)
Orbital Period (minutes)
Azimuth
Elevation
Range (km)
Doppler Factor

Next 0 passes for location: London (51.5072 / 0.1276)

Sorry there are no passes over London.